Time,TemperatureF,DewpointF,PressureIn,WindDirection,WindDirectionDegrees,WindSpeedMPH,WindSpeedGustMPH,Humidity,HourlyPrecipIn,Conditions,Clouds,dailyrainin,SolarRadiationWatts/m^2,SoftwareType,DateUTC
2013-04-03 00:02:00,55.0,-1.0,-100.00,NNW,331,0.0,13.0,10,0.00,,,0.00,0.000000,,2013-04-03 06:02:00,
2013-04-03 00:12:00,55.0,-1.0,-100.00,NNW,331,0.0,13.0,10,0.00,,,0.00,0.000000,,2013-04-03 06:12:00,
2013-04-03 00:22:00,55.0,-1.0,-100.00,NNW,331,0.0,13.0,10,0.00,,,0.00,0.000000,,2013-04-03 06:22:00,
2013-04-03 00:52:00,54.0,1.0,-100.00,NNW,338,1.0,10.0,11,0.00,,,0.00,0.000000,,2013-04-03 06:52:00,
2013-04-03 01:02:00,54.0,1.0,-100.00,NNW,338,1.0,10.0,11,0.00,,,0.00,0.000000,,2013-04-03 07:02:00,
2013-04-03 01:12:00,54.0,1.0,-100.00,NNW,338,1.0,10.0,11,0.00,,,0.00,0.000000,,2013-04-03 07:12:00,
2013-04-03 01:23:00,54.0,1.0,-100.00,NNW,338,1.0,10.0,11,0.00,,,0.00,0.000000,,2013-04-03 07:23:00,
2013-04-03 01:53:00,50.0,4.0,-100.00,ESE,103,1.0,6.0,15,0.00,,,0.00,0.000000,,2013-04-03 07:53:00,
2013-04-03 02:03:00,50.0,4.0,-100.00,ESE,103,1.0,6.0,15,0.00,,,0.00,0.000000,,2013-04-03 08:03:00,
2013-04-03 02:12:00,50.0,4.0,-100.00,ESE,103,1.0,6.0,15,0.00,,,0.00,0.000000,,2013-04-03 08:12:00,
2013-04-03 02:22:00,50.0,4.0,-100.00,ESE,103,1.0,6.0,15,0.00,,,0.00,0.000000,,2013-04-03 08:22:00,
2013-04-03 02:52:00,50.0,7.0,-100.00,ESE,119,4.0,8.0,17,0.00,,,0.00,0.000000,,2013-04-03 08:52:00,
2013-04-03 03:02:00,50.0,7.0,-100.00,ESE,119,4.0,8.0,17,0.00,,,0.00,0.000000,,2013-04-03 09:02:00,
2013-04-03 03:12:00,50.0,7.0,-100.00,ESE,119,4.0,8.0,17,0.00,,,0.00,0.000000,,2013-04-03 09:12:00,
2013-04-03 03:22:00,50.0,7.0,-100.00,ESE,119,4.0,8.0,17,0.00,,,0.00,0.000000,,2013-04-03 09:22:00,
2013-04-03 03:53:00,49.0,16.0,-100.00,SSW,196,2.0,19.0,26,0.00,,,0.00,0.000000,,2013-04-03 09:53:00,
2013-04-03 04:03:00,49.0,16.0,-100.00,SSW,196,2.0,19.0,26,0.00,,,0.00,0.000000,,2013-04-03 10:03:00,
2013-04-03 04:12:00,49.0,16.0,-100.00,SSW,196,2.0,19.0,26,0.00,,,0.00,0.000000,,2013-04-03 10:12:00,
2013-04-03 04:22:00,49.0,16.0,-100.00,SSW,196,2.0,19.0,26,0.00,,,0.00,0.000000,,2013-04-03 10:22:00,
2013-04-03 04:53:00,46.0,19.0,-100.00,North,8,0.0,5.0,34,0.00,,,0.00,0.000000,,2013-04-03 10:53:00,
2013-04-03 05:02:00,46.0,19.0,-100.00,North,8,0.0,5.0,34,0.00,,,0.00,0.000000,,2013-04-03 11:02:00,
2013-04-03 05:12:00,46.0,19.0,-100.00,North,8,0.0,5.0,34,0.00,,,0.00,0.000000,,2013-04-03 11:12:00,
2013-04-03 05:22:00,46.0,19.0,-100.00,North,8,0.0,5.0,34,0.00,,,0.00,0.000000,,2013-04-03 11:22:00,
2013-04-03 05:53:00,44.0,17.0,-100.00,NNE,26,2.0,4.0,33,0.00,,,0.00,0.000000,,2013-04-03 11:53:00,
2013-04-03 06:02:00,44.0,17.0,-100.00,NNE,26,2.0,4.0,33,0.00,,,0.00,0.000000,,2013-04-03 12:02:00,
2013-04-03 06:13:00,44.0,17.0,-100.00,NNE,26,2.0,4.0,33,0.00,,,0.00,0.000000,,2013-04-03 12:13:00,
2013-04-03 06:22:00,44.0,17.0,-100.00,NNE,26,2.0,4.0,33,0.00,,,0.00,0.000000,,2013-04-03 12:22:00,
2013-04-03 06:52:00,45.0,20.0,-100.00,ESE,103,2.0,5.0,36,0.00,,,0.00,0.000000,,2013-04-03 12:52:00,
2013-04-03 07:02:00,45.0,20.0,-100.00,ESE,103,2.0,5.0,36,0.00,,,0.00,0.000000,,2013-04-03 13:02:00,
2013-04-03 07:12:00,45.0,20.0,-100.00,ESE,103,2.0,5.0,36,0.00,,,0.00,0.000000,,2013-04-03 13:12:00,
2013-04-03 07:22:00,45.0,20.0,-100.00,ESE,103,2.0,5.0,36,0.00,,,0.00,0.000000,,2013-04-03 13:22:00,
2013-04-03 07:52:00,45.0,21.0,-100.00,ESE,115,0.0,5.0,38,0.00,,,0.00,7.000000,,2013-04-03 13:52:00,
2013-04-03 08:02:00,45.0,21.0,-100.00,ESE,115,0.0,5.0,38,0.00,,,0.00,7.000000,,2013-04-03 14:02:00,
2013-04-03 08:12:00,45.0,21.0,-100.00,ESE,115,0.0,5.0,38,0.00,,,0.00,7.000000,,2013-04-03 14:12:00,
2013-04-03 08:22:00,45.0,21.0,-100.00,ESE,115,0.0,5.0,38,0.00,,,0.00,7.000000,,2013-04-03 14:22:00,
2013-04-03 08:52:00,42.0,23.0,-100.00,SSE,160,1.0,8.0,47,0.00,,,0.00,27.000000,,2013-04-03 14:52:00,
2013-04-03 09:02:00,42.0,23.0,-100.00,SSE,160,1.0,8.0,47,0.00,,,0.00,27.000000,,2013-04-03 15:02:00,
2013-04-03 09:12:00,42.0,23.0,-100.00,SSE,160,1.0,8.0,47,0.00,,,0.00,27.000000,,2013-04-03 15:12:00,
2013-04-03 09:23:00,42.0,23.0,-100.00,SSE,160,1.0,8.0,47,0.00,,,0.00,27.000000,,2013-04-03 15:23:00,
2013-04-03 09:53:00,53.0,23.0,-100.00,SW,227,2.0,5.0,31,0.00,,,0.00,496.000000,,2013-04-03 15:53:00,
2013-04-03 10:03:00,53.0,23.0,-100.00,SW,227,2.0,5.0,31,0.00,,,0.00,496.000000,,2013-04-03 16:03:00,
2013-04-03 10:12:00,53.0,23.0,-100.00,SW,227,2.0,5.0,31,0.00,,,0.00,496.000000,,2013-04-03 16:12:00,
2013-04-03 10:53:00,54.0,26.0,-100.00,West,271,5.0,10.0,33,0.00,,,0.00,767.000000,,2013-04-03 16:53:00,
2013-04-03 11:03:00,54.0,26.0,-100.00,West,271,5.0,10.0,33,0.00,,,0.00,767.000000,,2013-04-03 17:03:00,
2013-04-03 11:13:00,54.0,26.0,-100.00,West,271,5.0,10.0,33,0.00,,,0.00,767.000000,,2013-04-03 17:13:00,
2013-04-03 11:23:00,54.0,26.0,-100.00,West,271,5.0,10.0,33,0.00,,,0.00,767.000000,,2013-04-03 17:23:00,
2013-04-03 11:54:00,56.0,27.0,-100.00,SSW,203,6.0,13.0,32,0.00,,,0.00,982.000000,,2013-04-03 17:54:00,
2013-04-03 12:02:00,56.0,27.0,-100.00,SSW,203,6.0,13.0,32,0.00,,,0.00,982.000000,,2013-04-03 18:02:00,
2013-04-03 12:13:00,56.0,27.0,-100.00,SSW,203,6.0,13.0,32,0.00,,,0.00,982.000000,,2013-04-03 18:13:00,
2013-04-03 12:22:00,56.0,27.0,-100.00,SSW,203,6.0,13.0,32,0.00,,,0.00,982.000000,,2013-04-03 18:22:00,
2013-04-03 12:52:00,59.0,28.0,-100.00,WSW,253,6.0,16.0,30,0.00,,,0.00,1129.000000,,2013-04-03 18:52:00,
2013-04-03 13:03:00,59.0,28.0,-100.00,WSW,253,6.0,16.0,30,0.00,,,0.00,1129.000000,,2013-04-03 19:03:00,
2013-04-03 13:12:00,59.0,28.0,-100.00,WSW,253,6.0,16.0,30,0.00,,,0.00,1129.000000,,2013-04-03 19:12:00,
2013-04-03 13:22:00,59.0,28.0,-100.00,WSW,253,6.0,16.0,30,0.00,,,0.00,1129.000000,,2013-04-03 19:22:00,
2013-04-03 14:12:00,62.0,28.0,-100.00,SSW,206,7.0,20.0,27,0.00,,,0.00,1190.000000,,2013-04-03 20:12:00,
2013-04-03 14:23:00,62.0,28.0,-100.00,SSW,206,7.0,20.0,27,0.00,,,0.00,1190.000000,,2013-04-03 20:23:00,
2013-04-03 14:53:00,64.0,29.0,-100.00,West,262,8.0,17.0,27,0.00,,,0.00,1149.000000,,2013-04-03 20:53:00,
2013-04-03 15:02:00,64.0,29.0,-100.00,West,262,8.0,17.0,27,0.00,,,0.00,1149.000000,,2013-04-03 21:02:00,
2013-04-03 15:12:00,64.0,29.0,-100.00,West,262,8.0,17.0,27,0.00,,,0.00,1149.000000,,2013-04-03 21:12:00,
2013-04-03 15:22:00,64.0,29.0,-100.00,West,262,8.0,17.0,27,0.00,,,0.00,1149.000000,,2013-04-03 21:22:00,
2013-04-03 15:52:00,64.0,26.0,-100.00,NNW,329,4.0,20.0,24,0.00,,,0.00,1055.000000,,2013-04-03 21:52:00,
2013-04-03 16:02:00,64.0,26.0,-100.00,NNW,329,4.0,20.0,24,0.00,,,0.00,1055.000000,,2013-04-03 22:02:00,
2013-04-03 16:12:00,64.0,26.0,-100.00,NNW,329,4.0,20.0,24,0.00,,,0.00,1055.000000,,2013-04-03 22:12:00,
2013-04-03 16:22:00,64.0,26.0,-100.00,NNW,329,4.0,20.0,24,0.00,,,0.00,1055.000000,,2013-04-03 22:22:00,
2013-04-03 16:52:00,67.0,23.0,-100.00,WSW,249,7.0,16.0,19,0.00,,,0.00,872.000000,,2013-04-03 22:52:00,
2013-04-03 17:02:00,67.0,23.0,-100.00,WSW,249,7.0,16.0,19,0.00,,,0.00,872.000000,,2013-04-03 23:02:00,
2013-04-03 17:12:00,67.0,23.0,-100.00,WSW,249,7.0,16.0,19,0.00,,,0.00,872.000000,,2013-04-03 23:12:00,
2013-04-03 17:22:00,67.0,23.0,-100.00,WSW,249,7.0,16.0,19,0.00,,,0.00,872.000000,,2013-04-03 23:22:00,
2013-04-03 17:54:00,64.0,23.0,-100.00,NW,326,6.0,19.0,21,0.00,,,0.00,425.000000,,2013-04-03 23:54:00,
2013-04-03 18:03:00,64.0,23.0,-100.00,NW,326,6.0,19.0,21,0.00,,,0.00,425.000000,,2013-04-04 00:03:00,
2013-04-03 18:12:00,64.0,23.0,-100.00,NW,326,6.0,19.0,21,0.00,,,0.00,425.000000,,2013-04-04 00:12:00,
2013-04-03 18:22:00,64.0,23.0,-100.00,NW,326,6.0,19.0,21,0.00,,,0.00,425.000000,,2013-04-04 00:22:00,
2013-04-03 18:52:00,64.0,21.0,-100.00,North,3,5.0,13.0,19,0.00,,,0.00,282.000000,,2013-04-04 00:52:00,
2013-04-03 19:02:00,64.0,21.0,-100.00,North,3,5.0,13.0,19,0.00,,,0.00,282.000000,,2013-04-04 01:02:00,
2013-04-03 19:12:00,64.0,21.0,-100.00,North,3,5.0,13.0,19,0.00,,,0.00,282.000000,,2013-04-04 01:12:00,
2013-04-03 19:22:00,64.0,21.0,-100.00,North,3,5.0,13.0,19,0.00,,,0.00,282.000000,,2013-04-04 01:22:00,
2013-04-03 19:52:00,61.0,22.0,-100.00,NNW,343,2.0,14.0,22,0.00,,,0.00,115.000000,,2013-04-04 01:52:00,
2013-04-03 20:02:00,61.0,22.0,-100.00,NNW,343,2.0,14.0,22,0.00,,,0.00,115.000000,,2013-04-04 02:02:00,
2013-04-03 20:12:00,61.0,22.0,-100.00,NNW,343,2.0,14.0,22,0.00,,,0.00,115.000000,,2013-04-04 02:12:00,
2013-04-03 20:22:00,61.0,22.0,-100.00,NNW,343,2.0,14.0,22,0.00,,,0.00,115.000000,,2013-04-04 02:22:00,
2013-04-03 21:02:00,58.0,22.0,-100.00,ESE,109,9.0,10.0,25,0.00,,,0.00,0.000000,,2013-04-04 03:02:00,
2013-04-03 21:12:00,58.0,22.0,-100.00,ESE,109,9.0,10.0,25,0.00,,,0.00,0.000000,,2013-04-04 03:12:00,
2013-04-03 21:22:00,58.0,22.0,-100.00,ESE,109,9.0,10.0,25,0.00,,,0.00,0.000000,,2013-04-04 03:22:00,
2013-04-03 21:53:00,57.0,21.0,-100.00,East,92,5.0,12.0,24,0.00,,,0.00,0.000000,,2013-04-04 03:53:00,
2013-04-03 22:03:00,57.0,21.0,-100.00,East,92,5.0,12.0,24,0.00,,,0.00,0.000000,,2013-04-04 04:03:00,
2013-04-03 22:12:00,57.0,21.0,-100.00,East,92,5.0,12.0,24,0.00,,,0.00,0.000000,,2013-04-04 04:12:00,
2013-04-03 22:23:00,57.0,21.0,-100.00,East,92,5.0,12.0,24,0.00,,,0.00,0.000000,,2013-04-04 04:23:00,
2013-04-03 22:53:00,56.0,21.0,-100.00,ESE,113,11.0,16.0,25,0.00,,,0.00,0.000000,,2013-04-04 04:53:00,
2013-04-03 23:02:00,56.0,21.0,-100.00,ESE,113,11.0,16.0,25,0.00,,,0.00,0.000000,,2013-04-04 05:02:00,
2013-04-03 23:13:00,56.0,21.0,-100.00,ESE,113,11.0,16.0,25,0.00,,,0.00,0.000000,,2013-04-04 05:13:00,
2013-04-03 23:23:00,56.0,21.0,-100.00,ESE,113,11.0,16.0,25,0.00,,,0.00,0.000000,,2013-04-04 05:23:00,
2013-04-03 23:53:00,55.0,20.0,-100.00,SE,142,9.0,17.0,25,0.00,,,0.00,0.000000,,2013-04-04 05:53:00,